����,���ϕ���(m/s),���ϕ���,�ő�u�ԕ���(m/s),�ő啗��������,�C��(��),���x(%),10���Ԉړ��ώZ�J��(mm),1���Ԉړ��ώZ�J��(mm),���J��(mm),�݌v�J��(mm),����(���ώZ)(MJ/m2),����(���ώZ)(min),���n�C��(hPa),�C�ʋC��(hPa)
2023-08-21T00:00:00+09:00,1.2,���k��,2.3,��,27.9,87.6,0,0,0,0,21.85,582,1000.4,1013.6
2023-08-21T00:01:00+09:00,1.1,���k��,2.3,��,27.9,87.1,0,0,0,0,0,0,1000.4,1013.6
2023-08-21T00:02:00+09:00,1,���k��,2.1,��,27.9,86.8,0,0,0,0,0,0,1000.4,1013.6
2023-08-21T00:03:00+09:00,0.9,���k��,1.6,���k��,27.8,86.3,0,0,0,0,0,0,1000.4,1013.6
2023-08-21T00:04:00+09:00,0.8,���k��,1.5,���k��,27.7,86.2,0,0,0,0,0,0,1000.4,1013.6
2023-08-21T00:05:00+09:00,0.8,���k��,1.5,���k��,27.7,86.3,0,0,0,0,0,0,1000.4,1013.6
2023-08-21T00:06:00+09:00,0.8,���k��,1.5,���k��,27.8,86.6,0,0,0,0,0,0,1000.4,1013.6
2023-08-21T00:07:00+09:00,0.8,���k��,1.5,���k��,27.8,86.4,0,0,0,0,0,0,1000.4,1013.6
2023-08-21T00:08:00+09:00,0.8,���k��,1.5,���k��,27.7,86.3,0,0,0,0,0,0,1000.4,1013.6
2023-08-21T00:09:00+09:00,0.7,���k��,1.5,���k��,27.8,86.4,0,0,0,0,0,0,1000.4,1013.6
2023-08-21T00:10:00+09:00,0.8,���k��,1.5,���k��,27.8,86.4,0,0,0,0,0,0,1000.4,1013.6
2023-08-21T00:11:00+09:00,0.8,���k��,1.5,���k��,27.8,86.4,0,0,0,0,0,0,1000.4,1013.6
2023-08-21T00:12:00+09:00,0.9,���k��,1.9,�k��,27.9,86.5,0,0,0,0,0,0,1000.4,1013.6
2023-08-21T00:13:00+09:00,1,���k��,1.9,�k��,27.8,86.1,0,0,0,0,0,0,1000.3,1013.5
2023-08-21T00:14:00+09:00,1,���k��,1.9,�k��,27.9,86.1,0,0,0,0,0,0,1000.3,1013.5
2023-08-21T00:15:00+09:00,1,�k��,1.9,�k��,27.8,86,0,0,0,0,0,0,1000.4,1013.6
2023-08-21T00:16:00+09:00,1,�k��,1.9,�k��,27.7,85.8,0,0,0,0,0,0,1000.3,1013.5
2023-08-21T00:17:00+09:00,1,�k��,1.9,�k��,27.7,86,0,0,0,0,0,0,1000.3,1013.5
2023-08-21T00:18:00+09:00,1,�k��,1.9,�k��,27.8,86.3,0,0,0,0,0,0,1000.3,1013.5
2023-08-21T00:19:00+09:00,1.1,�k��,1.9,�k��,27.9,86.6,0,0,0,0,0,0,1000.3,1013.5
2023-08-21T00:20:00+09:00,1.2,���k��,1.9,�k��,27.7,86.2,0,0,0,0,0,0,1000.3,1013.5
2023-08-21T00:21:00+09:00,1.2,���k��,1.9,�k��,27.6,85.9,0,0,0,0,0,0,1000.3,1013.5
2023-08-21T00:22:00+09:00,1,�k��,1.8,���k��,27.8,86.6,0,0,0,0,0,0,1000.3,1013.5
2023-08-21T00:23:00+09:00,0.9,�k��,1.7,���k��,27.8,86.6,0,0,0,0,0,0,1000.3,1013.5
2023-08-21T00:24:00+09:00,0.8,���k��,1.7,���k��,27.6,86.2,0,0,0,0,0,0,1000.3,1013.5
2023-08-21T00:25:00+09:00,0.8,�k��,1.7,���k��,27.6,86.5,0,0,0,0,0,0,1000.3,1013.5
2023-08-21T00:26:00+09:00,0.7,�k��,1.7,���k��,27.7,86.8,0,0,0,0,0,0,1000.2,1013.4
2023-08-21T00:27:00+09:00,0.6,�k��,1.7,���k��,27.6,86.9,0,0,0,0,0,0,1000.2,1013.4
2023-08-21T00:28:00+09:00,0.5,�k��,1.7,���k��,27.7,87.2,0,0,0,0,0,0,1000.2,1013.4
2023-08-21T00:29:00+09:00,0.4,�k��,1.7,���k��,27.8,87.5,0,0,0,0,0,0,1000.2,1013.4
2023-08-21T00:30:00+09:00,0.3,�k��,1.2,��,27.6,86.9,0,0,0,0,0,0,1000.2,1013.4
2023-08-21T00:31:00+09:00,0.3,�k�k��,0.8,���쓌,27.3,86.4,0,0,0,0,0,0,1000.2,1013.5
2023-08-21T00:32:00+09:00,0.3,�k��,0.8,���쓌,27.6,87.2,0,0,0,0,0,0,1000.2,1013.4
2023-08-21T00:33:00+09:00,0.3,�k��,0.8,���쓌,27.6,87.4,0,0,0,0,0,0,1000.2,1013.4
2023-08-21T00:34:00+09:00,0.3,�k�k��,0.9,�쐼,27.4,87.1,0,0,0,0,0,0,1000.1,1013.3
2023-08-21T00:35:00+09:00,0.4,�쐼,1.9,���쐼,27.1,87,0,0,0,0,0,0,1000.1,1013.4
2023-08-21T00:36:00+09:00,0.4,��쐼,1.9,���쐼,27,87.2,0,0,0,0,0,0,1000.1,1013.4
2023-08-21T00:37:00+09:00,0.5,��쐼,1.9,���쐼,27,87.9,0,0,0,0,0,0,1000.1,1013.4
2023-08-21T00:38:00+09:00,0.5,��쐼,1.9,���쐼,27.3,89.2,0,0,0,0,0,0,1000.1,1013.4
2023-08-21T00:39:00+09:00,0.6,�쐼,1.9,���쐼,27.4,89.2,0,0,0,0,0,0,1000.1,1013.3
2023-08-21T00:40:00+09:00,0.6,���쐼,1.9,���쐼,27.5,89,0,0,0,0,0,0,1000.1,1013.3
2023-08-21T00:41:00+09:00,0.6,��,1.9,���쐼,27.5,88.6,0,0,0,0,0,0,1000.1,1013.3
2023-08-21T00:42:00+09:00,0.6,��,1.9,���쐼,27.5,88.3,0,0,0,0,0,0,1000.1,1013.3
2023-08-21T00:43:00+09:00,0.7,��,1.9,���쐼,27.5,88.2,0,0,0,0,0,0,1000.1,1013.3
2023-08-21T00:44:00+09:00,0.7,��,1.9,���쐼,27.5,88.1,0,0,0,0,0,0,1000.1,1013.3
2023-08-21T00:45:00+09:00,0.7,��,1.6,��,27.5,88,0,0,0,0,0,0,1000.1,1013.3
2023-08-21T00:46:00+09:00,0.6,���k��,1.5,��,27.6,88.1,0,0,0,0,0,0,1000.1,1013.3
2023-08-21T00:47:00+09:00,0.5,���k��,1.1,���k��,27.7,88.1,0,0,0,0,0,0,1000.1,1013.3
2023-08-21T00:48:00+09:00,0.6,���k��,1.2,�k,27.7,87.7,0,0,0,0,0,0,1000.1,1013.3
2023-08-21T00:49:00+09:00,0.5,�k��,1.6,�k��,27.6,87.2,0,0,0,0,0,0,1000,1013.2
2023-08-21T00:50:00+09:00,0.6,�k��,1.8,�k��,27.5,87,0,0,0,0,0,0,1000,1013.2
2023-08-21T00:51:00+09:00,0.6,�k�k��,1.8,�k��,27.6,87.5,0,0,0,0,0,0,1000,1013.2
2023-08-21T00:52:00+09:00,0.7,�k,1.8,�k��,27.8,87.9,0,0,0,0,0,0,1000,1013.2
2023-08-21T00:53:00+09:00,0.8,�k,1.8,�k��,27.7,87.5,0,0,0,0,0,0,1000,1013.2
2023-08-21T00:54:00+09:00,0.9,�k�k��,2.4,�k��,27.8,87.5,0,0,0,0,0,0,1000,1013.2
2023-08-21T00:55:00+09:00,1,�k�k��,2.4,�k��,27.8,87.5,0,0,0,0,0,0,1000,1013.2
2023-08-21T00:56:00+09:00,1,�k�k��,2.4,�k��,27.9,87.4,0,0,0,0,0,0,1000,1013.2
2023-08-21T00:57:00+09:00,1.1,�k��,2.4,�k��,27.8,86.9,0,0,0,0,0,0,1000,1013.2
2023-08-21T00:58:00+09:00,1,�k��,2.4,�k��,27.6,86.5,0,0,0,0,0,0,1000,1013.2
2023-08-21T00:59:00+09:00,1,�k��,2.4,�k��,27.8,86.9,0,0,0,0,0,0,1000,1013.2
2023-08-21T01:00:00+09:00,0.9,�k��,2.4,�k��,27.8,87,0,0,0,0,0,0,1000,1013.2
2023-08-21T01:01:00+09:00,0.8,�k��,2.4,�k��,27.6,86.5,0,0,0,0,0,0,1000,1013.2
2023-08-21T01:02:00+09:00,0.8,�k��,2.4,�k��,27.8,87.2,0,0,0,0,0,0,1000,1013.2
2023-08-21T01:03:00+09:00,0.8,�k��,2.4,�k��,27.8,87.1,0,0,0,0,0,0,999.9,1013.1
2023-08-21T01:04:00+09:00,0.7,�k��,1.9,�k��,27.8,86.8,0,0,0,0,0,0,999.9,1013.1
2023-08-21T01:05:00+09:00,0.6,�k��,1.7,�k��,27.7,86.8,0,0,0,0,0,0,999.9,1013.1
2023-08-21T01:06:00+09:00,0.5,�k��,1.7,�k��,27.5,86.5,0,0,0,0,0,0,999.9,1013.1
2023-08-21T01:07:00+09:00,0.5,�k��,1.7,�k��,27.5,86.9,0,0,0,0,0,0,999.9,1013.1
2023-08-21T01:08:00+09:00,0.6,�k��,1.7,�k��,27.5,87.4,0,0,0,0,0,0,999.8,1013
2023-08-21T01:09:00+09:00,0.6,�k��,1.7,�k��,27.5,88.1,0,0,0,0,0,0,999.8,1013
2023-08-21T01:10:00+09:00,0.7,�k��,1.7,�k��,27.5,88.3,0,0,0,0,0,0,999.8,1013
2023-08-21T01:11:00+09:00,0.6,�k��,1.7,�k��,27.4,88.3,0,0,0,0,0,0,999.8,1013
2023-08-21T01:12:00+09:00,0.6,�k��,1.6,�k��,27.3,88.5,0,0,0,0,0,0,999.8,1013
2023-08-21T01:13:00+09:00,0.5,�k��,1.4,�k��,27.4,89.1,0,0,0,0,0,0,999.8,1013
2023-08-21T01:14:00+09:00,0.6,�k��,1.5,�k�k��,27.2,89.2,0,0,0,0,0,0,999.8,1013.1
2023-08-21T01:15:00+09:00,0.6,�k��,1.5,�k�k��,27.3,89.4,0,0,0,0,0,0,999.8,1013
2023-08-21T01:16:00+09:00,0.5,�k��,1.5,�k�k��,27.4,89.8,0,0,0,0,0,0,999.8,1013
2023-08-21T01:17:00+09:00,0.5,�k��,1.5,�k�k��,27.4,89.5,0,0,0,0,0,0,999.8,1013
2023-08-21T01:18:00+09:00,0.5,�k�k��,1.5,�k�k��,27.3,88.9,0,0,0,0,0,0,999.8,1013
2023-08-21T01:19:00+09:00,0.5,�k�k��,1.5,�k�k��,27.3,88.9,0,0,0,0,0,0,999.8,1013
2023-08-21T01:20:00+09:00,0.5,�k�k��,1.5,�k�k��,27.4,89,0,0,0,0,0,0,999.8,1013
2023-08-21T01:21:00+09:00,0.5,�k,1.5,�k�k��,27.4,88.9,0,0,0,0,0,0,999.8,1013
2023-08-21T01:22:00+09:00,0.5,�k,1.5,�k�k��,27.4,88.9,0,0,0,0,0,0,999.8,1013
2023-08-21T01:23:00+09:00,0.5,�k�k��,1.5,�k�k��,27.4,88.7,0,0,0,0,0,0,999.8,1013
2023-08-21T01:24:00+09:00,0.4,�k�k��,1.1,���k��,27.4,88.8,0,0,0,0,0,0,999.8,1013
2023-08-21T01:25:00+09:00,0.4,�k�k��,1.1,���k��,27.5,89,0,0,0,0,0,0,999.8,1013
2023-08-21T01:26:00+09:00,0.4,�k�k��,1.1,���k��,27.4,88.8,0,0,0,0,0,0,999.7,1012.9
2023-08-21T01:27:00+09:00,0.4,�k�k��,1.1,���k��,27.3,88.4,0,0,0,0,0,0,999.7,1012.9
2023-08-21T01:28:00+09:00,0.4,�k�k��,1.1,���k��,27.3,88.8,0,0,0,0,0,0,999.7,1012.9
2023-08-21T01:29:00+09:00,0.3,�k�k��,0.9,���k��,27.2,89.2,0,0,0,0,0,0,999.7,1013
2023-08-21T01:30:00+09:00,0.3,�k�k��,0.8,�k,27.2,89.6,0,0,0,0,0,0,999.7,1013
2023-08-21T01:31:00+09:00,0.3,�k�k��,0.8,�k,27.3,90,0,0,0,0,0,0,999.7,1012.9
2023-08-21T01:32:00+09:00,0.3,�k�k��,0.8,�k,27.4,90.2,0,0,0,0,0,0,999.7,1012.9
2023-08-21T01:33:00+09:00,0.3,�k�k��,0.8,�k,27.5,90.2,0,0,0,0,0,0,999.7,1012.9
2023-08-21T01:34:00+09:00,0.3,�k�k��,0.8,�k,27.5,89.8,0,0,0,0,0,0,999.7,1012.9
2023-08-21T01:35:00+09:00,0.3,�k�k��,1.1,���k��,27.6,89.3,0,0,0,0,0,0,999.7,1012.9
2023-08-21T01:36:00+09:00,0.4,�k�k��,1.2,�k��,27.5,88.9,0,0,0,0,0,0,999.7,1012.9
2023-08-21T01:37:00+09:00,0.5,�k��,1.2,�k��,27.5,88.5,0,0,0,0,0,0,999.7,1012.9
2023-08-21T01:38:00+09:00,0.5,�k��,1.3,�k��,27.5,88.2,0,0,0,0,0,0,999.7,1012.9
2023-08-21T01:39:00+09:00,0.5,�k��,1.3,�k��,27.5,88.2,0,0,0,0,0,0,999.8,1013
2023-08-21T01:40:00+09:00,0.6,�k��,1.3,�k��,27.5,88.2,0,0,0,0,0,0,999.7,1012.9
2023-08-21T01:41:00+09:00,0.6,�k��,1.3,�k��,27.6,88.1,0,0,0,0,0,0,999.8,1013
2023-08-21T01:42:00+09:00,0.7,�k��,1.3,�k��,27.6,88.1,0,0,0,0,0,0,999.8,1013
2023-08-21T01:43:00+09:00,0.8,���k��,1.3,�k��,27.6,87.9,0,0,0,0,0,0,999.8,1013
2023-08-21T01:44:00+09:00,0.8,���k��,1.4,��,27.6,87.6,0,0,0,0,0,0,999.8,1013
2023-08-21T01:45:00+09:00,0.9,���k��,1.4,��,27.6,87.6,0,0,0,0,0,0,999.8,1013
2023-08-21T01:46:00+09:00,0.9,���k��,1.4,��,27.4,87.5,0,0,0,0,0,0,999.8,1013
2023-08-21T01:47:00+09:00,1,���k��,1.4,��,27.3,87.8,0,0,0,0,0,0,999.8,1013
2023-08-21T01:48:00+09:00,1.1,���k��,1.4,��,27.4,88.3,0,0,0,0,0,0,999.8,1013
2023-08-21T01:49:00+09:00,1.1,���k��,1.6,���k��,27.5,88.8,0,0,0,0,0,0,999.8,1013
2023-08-21T01:50:00+09:00,1.1,���k��,1.7,��,27.5,88.8,0,0,0,0,0,0,999.7,1012.9
2023-08-21T01:51:00+09:00,1.2,���k��,1.8,��,27.5,88.6,0,0,0,0,0,0,999.7,1012.9
2023-08-21T01:52:00+09:00,1.3,��,2,��,27.4,88.5,0,0,0,0,0,0,999.7,1012.9
2023-08-21T01:53:00+09:00,1.4,��,2,��,27.4,88.4,0,0,0,0,0,0,999.7,1012.9
2023-08-21T01:54:00+09:00,1.4,��,2.1,��,27.1,88.2,0,0,0,0,0,0,999.7,1013
2023-08-21T01:55:00+09:00,1.5,��,2.2,��,26.8,88,0,0,0,0,0,0,999.7,1013
2023-08-21T01:56:00+09:00,1.6,���k��,2.2,��,26.8,88.8,0,0,0,0,0,0,999.7,1013
2023-08-21T01:57:00+09:00,1.6,��,2.2,��,26.6,89.4,0,0,0,0,0,0,999.7,1013
2023-08-21T01:58:00+09:00,1.7,��,2.2,��,26.8,90.3,0,0,0,0,0,0,999.7,1013
2023-08-21T01:59:00+09:00,1.7,��,2.2,��,26.8,90.9,0,0,0,0,0,0,999.7,1013
2023-08-21T02:00:00+09:00,1.7,��,2.2,��,26.8,91.2,0,0,0,0,0,0,999.7,1013
2023-08-21T02:01:00+09:00,1.7,��,2.2,��,26.7,91.1,0,0,0,0,0,0,999.6,1012.9
2023-08-21T02:02:00+09:00,1.6,��,2.2,��,26.5,90.8,0,0,0,0,0,0,999.6,1012.9
2023-08-21T02:03:00+09:00,1.6,��,2.2,��,26.6,91.5,0,0,0,0,0,0,999.6,1012.9
2023-08-21T02:04:00+09:00,1.6,��,2.3,��,26.5,91.9,0,0,0,0,0,0,999.6,1012.9
2023-08-21T02:05:00+09:00,1.6,��,2.5,��,26.4,91.7,0,0,0,0,0,0,999.6,1012.9
2023-08-21T02:06:00+09:00,1.6,��,2.5,��,26.4,92.2,0,0,0,0,0,0,999.6,1012.9
2023-08-21T02:07:00+09:00,1.6,��,2.5,��,26.4,92.5,0,0,0,0,0,0,999.5,1012.8
2023-08-21T02:08:00+09:00,1.6,��,2.5,��,26.3,92.5,0,0,0,0,0,0,999.5,1012.8
2023-08-21T02:09:00+09:00,1.6,��,2.6,���k��,26.4,93,0,0,0,0,0,0,999.5,1012.8
2023-08-21T02:10:00+09:00,1.7,��,2.6,���k��,26.3,93.1,0,0,0,0,0,0,999.5,1012.8
2023-08-21T02:11:00+09:00,1.7,��,2.6,���k��,26.2,93.2,0,0,0,0,0,0,999.5,1012.8
2023-08-21T02:12:00+09:00,1.8,��,2.6,���k��,26.3,93.7,0,0,0,0,0,0,999.5,1012.8
2023-08-21T02:13:00+09:00,1.8,��,2.6,���k��,26.4,93.8,0,0,0,0,0,0,999.5,1012.8
2023-08-21T02:14:00+09:00,1.8,��,2.6,���k��,26.4,93.6,0,0,0,0,0,0,999.5,1012.8
2023-08-21T02:15:00+09:00,1.7,��,2.6,���k��,26.6,94.2,0,0,0,0,0,0,999.6,1012.9
2023-08-21T02:16:00+09:00,1.7,��,2.6,���k��,26.6,93.9,0,0,0,0,0,0,999.6,1012.9
2023-08-21T02:17:00+09:00,1.7,��,2.6,���k��,26.7,93.7,0,0,0,0,0,0,999.6,1012.9
2023-08-21T02:18:00+09:00,1.7,��,2.6,���k��,26.8,93.3,0,0,0,0,0,0,999.6,1012.9
2023-08-21T02:19:00+09:00,1.6,��,2.4,���k��,26.6,92.4,0,0,0,0,0,0,999.6,1012.9
2023-08-21T02:20:00+09:00,1.5,��,2.2,���k��,26.8,92.4,0,0,0,0,0,0,999.6,1012.9
2023-08-21T02:21:00+09:00,1.4,��,2.2,���k��,26.8,92,0,0,0,0,0,0,999.6,1012.9
2023-08-21T02:22:00+09:00,1.4,��,2.2,���k��,26.7,91.8,0,0,0,0,0,0,999.6,1012.9
2023-08-21T02:23:00+09:00,1.3,��,1.7,��,26.8,91.3,0,0,0,0,0,0,999.6,1012.9
2023-08-21T02:24:00+09:00,1.3,���k��,1.7,��,27.1,91.8,0,0,0,0,0,0,999.6,1012.9
2023-08-21T02:25:00+09:00,1.2,���k��,1.7,��,27,91.1,0,0,0,0,0,0,999.6,1012.9
2023-08-21T02:26:00+09:00,1.1,���k��,1.7,��,27,90.5,0,0,0,0,0,0,999.5,1012.8
2023-08-21T02:27:00+09:00,1.1,���k��,1.6,��,27,90.6,0,0,0,0,0,0,999.6,1012.9
2023-08-21T02:28:00+09:00,0.9,���k��,1.5,���k��,26.8,90.5,0,0,0,0,0,0,999.6,1012.9
2023-08-21T02:29:00+09:00,0.9,�k��,1.5,���k��,26.8,90.5,0,0,0,0,0,0,999.6,1012.9
2023-08-21T02:30:00+09:00,0.9,�k��,1.5,���k��,27,91,0,0,0,0,0,0,999.6,1012.9
2023-08-21T02:31:00+09:00,0.9,�k�k��,1.6,�k�k��,27.2,91.2,0,0,0,0,0,0,999.5,1012.7
2023-08-21T02:32:00+09:00,0.9,�k�k��,1.8,�k��,27.2,90.7,0,0,0,0,0,0,999.5,1012.7
2023-08-21T02:33:00+09:00,1,�k,1.8,�k��,27.3,90.3,0,0,0,0,0,0,999.5,1012.7
2023-08-21T02:34:00+09:00,1,�k,1.8,�k��,27.4,89.8,0,0,0,0,0,0,999.4,1012.6
2023-08-21T02:35:00+09:00,1.1,�k,1.9,�k�k��,27.3,89.2,0,0,0,0,0,0,999.4,1012.6
2023-08-21T02:36:00+09:00,1.1,�k�k��,1.9,�k�k��,27.4,88.9,0,0,0,0,0,0,999.4,1012.6
2023-08-21T02:37:00+09:00,1.1,�k�k��,1.9,�k�k��,27.3,88.7,0,0,0,0,0,0,999.3,1012.5
2023-08-21T02:38:00+09:00,1.2,�k�k��,1.9,�k�k��,27.2,88.3,0,0,0,0,0,0,999.3,1012.5
2023-08-21T02:39:00+09:00,1.2,�k�k��,1.9,�k�k��,27.1,88.4,0,0,0,0,0,0,999.3,1012.6
2023-08-21T02:40:00+09:00,1.1,�k�k��,1.9,�k�k��,27.1,89,0,0,0,0,0,0,999.3,1012.6
2023-08-21T02:41:00+09:00,1.1,�k�k��,1.9,�k�k��,27.1,89.3,0,0,0,0,0,0,999.3,1012.6
2023-08-21T02:42:00+09:00,1.1,�k�k��,1.9,�k�k��,27.1,89.4,0,0,0,0,0,0,999.3,1012.6
2023-08-21T02:43:00+09:00,1.1,�k�k��,1.9,�k�k��,27.3,89.7,0,0,0,0,0,0,999.2,1012.4
2023-08-21T02:44:00+09:00,1.1,�k�k��,1.9,�k�k��,27.2,89.4,0,0,0,0,0,0,999.2,1012.4
2023-08-21T02:45:00+09:00,1.1,�k�k��,1.8,�k�k��,27.3,89.2,0,0,0,0,0,0,999.2,1012.4
2023-08-21T02:46:00+09:00,1.1,�k�k��,1.8,�k�k��,27.3,89.1,0,0,0,0,0,0,999.2,1012.4
2023-08-21T02:47:00+09:00,1.1,�k�k��,1.8,�k�k��,27.5,88.9,0,0,0,0,0,0,999.2,1012.4
2023-08-21T02:48:00+09:00,1.1,�k�k��,1.8,�k�k��,27.4,88.3,0,0,0,0,0,0,999.2,1012.4
2023-08-21T02:49:00+09:00,1.1,�k�k��,1.8,�k�k��,27.4,88.2,0,0,0,0,0,0,999.2,1012.4
2023-08-21T02:50:00+09:00,1.2,�k�k��,1.8,�k�k��,27.2,87.8,0,0,0,0,0,0,999.2,1012.4
2023-08-21T02:51:00+09:00,1.2,�k�k��,1.8,�k�k��,27.2,88.1,0,0,0,0,0,0,999.2,1012.4
2023-08-21T02:52:00+09:00,1.2,�k�k��,1.8,�k�k��,27.1,88.3,0,0,0,0,0,0,999.2,1012.4
2023-08-21T02:53:00+09:00,1.2,�k�k��,1.8,�k��,27.1,88.4,0,0,0,0,0,0,999.2,1012.4
2023-08-21T02:54:00+09:00,1.2,�k�k��,1.8,�k��,27.2,88.9,0,0,0,0,0,0,999.2,1012.4
2023-08-21T02:55:00+09:00,1.2,�k�k��,1.8,�k��,27.1,88.8,0,0,0,0,0,0,999.2,1012.4
2023-08-21T02:56:00+09:00,1.2,�k�k��,1.8,�k��,27.1,88.6,0,0,0,0,0,0,999.2,1012.4
2023-08-21T02:57:00+09:00,1.2,�k�k��,1.8,�k��,27.1,88.5,0,0,0,0,0,0,999.2,1012.4
2023-08-21T02:58:00+09:00,1.1,�k�k��,1.8,�k��,27.2,88.9,0,0,0,0,0,0,999.1,1012.3
2023-08-21T02:59:00+09:00,1.1,�k��,1.8,�k��,27.1,88.8,0,0,0,0,0,0,999.1,1012.3
2023-08-21T03:00:00+09:00,1.1,�k��,1.8,�k�k��,27.1,88.6,0,0,0,0,0,0,999.1,1012.3
2023-08-21T03:01:00+09:00,1,�k��,1.8,�k�k��,27.1,88.8,0,0,0,0,0,0,999.1,1012.3
2023-08-21T03:02:00+09:00,1,�k��,1.8,�k�k��,27.1,89,0,0,0,0,0,0,999.1,1012.3
2023-08-21T03:03:00+09:00,1,�k��,1.8,�k�k��,26.9,89.2,0,0,0,0,0,0,999.1,1012.4
2023-08-21T03:04:00+09:00,0.9,�k��,1.6,�k�k��,26.7,89.2,0,0,0,0,0,0,999.1,1012.4
2023-08-21T03:05:00+09:00,0.9,�k��,1.4,�k��,26.7,89.8,0,0,0,0,0,0,999.1,1012.4
2023-08-21T03:06:00+09:00,0.9,�k��,1.5,�k��,26.9,90.5,0,0,0,0,0,0,999.1,1012.4
2023-08-21T03:07:00+09:00,1,�k��,1.8,�k��,27.1,90.8,0,0,0,0,0,0,999.1,1012.3
2023-08-21T03:08:00+09:00,1.1,�k��,2,�k��,27,90.5,0,0,0,0,0,0,999.1,1012.4
2023-08-21T03:09:00+09:00,1.1,�k��,2,�k��,27.2,90.3,0,0,0,0,0,0,999.1,1012.3
2023-08-21T03:10:00+09:00,1.1,�k��,2,�k��,27.1,89.8,0,0,0,0,0,0,999.1,1012.3
2023-08-21T03:11:00+09:00,1.2,�k��,2,�k��,27.2,89.6,0,0,0,0,0,0,999.1,1012.3
2023-08-21T03:12:00+09:00,1.3,�k��,2.4,�k�k��,27.1,89.4,0,0,0,0,0,0,999.1,1012.3
2023-08-21T03:13:00+09:00,1.4,�k��,2.4,�k�k��,27.2,89.4,0,0,0,0,0,0,999.1,1012.3
2023-08-21T03:14:00+09:00,1.5,�k��,2.4,�k�k��,27.3,89.4,0,0,0,0,0,0,999.1,1012.3
2023-08-21T03:15:00+09:00,1.6,�k��,2.4,�k�k��,27.3,88.9,0,0,0,0,0,0,999.1,1012.3
2023-08-21T03:16:00+09:00,1.6,�k�k��,2.4,�k�k��,27.3,88.6,0,0,0,0,0,0,999.1,1012.3
2023-08-21T03:17:00+09:00,1.6,�k�k��,2.4,�k�k��,27.4,88.8,0,0,0,0,0,0,999.1,1012.3
2023-08-21T03:18:00+09:00,1.5,�k�k��,2.4,�k�k��,27.4,88.5,0,0,0,0,0,0,999.1,1012.3
2023-08-21T03:19:00+09:00,1.4,�k�k��,2.4,�k�k��,27.3,88.4,0,0,0,0,0,0,999.1,1012.3
2023-08-21T03:20:00+09:00,1.3,�k�k��,2.4,�k�k��,27.1,87.8,0,0,0,0,0,0,999.1,1012.3
2023-08-21T03:21:00+09:00,1.2,�k�k��,2.4,�k�k��,27.1,88.1,0,0,0,0,0,0,999.1,1012.3
2023-08-21T03:22:00+09:00,1.1,�k�k��,2.3,�k��,27,88.3,0,0,0,0,0,0,999.1,1012.4
2023-08-21T03:23:00+09:00,1,�k�k��,2.3,�k��,27,88.7,0,0,0,0,0,0,999.1,1012.4
2023-08-21T03:24:00+09:00,0.9,�k�k��,2.2,�k�k��,26.9,88.8,0,0,0,0,0,0,999.1,1012.4
2023-08-21T03:25:00+09:00,0.7,�k�k��,2.1,�k�k��,26.8,89.1,0,0,0,0,0,0,999.1,1012.4
2023-08-21T03:26:00+09:00,0.6,�k�k��,1.8,�k�k��,26.8,89.4,0,0,0,0,0,0,999.1,1012.4
2023-08-21T03:27:00+09:00,0.5,�k�k��,1.3,�k�k��,27,89.8,0,0,0,0,0,0,999.1,1012.4
2023-08-21T03:28:00+09:00,0.4,�k�k��,0.9,�k�k��,27,90.1,0,0,0,0,0,0,999.1,1012.4
2023-08-21T03:29:00+09:00,0.4,�k�k��,0.9,�k�k��,27.1,90,0,0,0,0,0,0,999.1,1012.3
2023-08-21T03:30:00+09:00,0.4,�k�k��,1,�k��,27,89.8,0,0,0,0,0,0,999.1,1012.4
2023-08-21T03:31:00+09:00,0.4,�k�k��,1,�k��,27,89.7,0,0,0,0,0,0,999.1,1012.4
2023-08-21T03:32:00+09:00,0.3,�k�k��,1,�k��,26.8,89.4,0,0,0,0,0,0,999.1,1012.4
2023-08-21T03:33:00+09:00,0.3,�k�k��,1,�k��,26.6,89.4,0,0,0,0,0,0,999.2,1012.5
2023-08-21T03:34:00+09:00,0.3,�k��,1,�k��,26.6,90.1,0,0,0,0,0,0,999.2,1012.5
2023-08-21T03:35:00+09:00,0.4,�k��,1,�k��,26.6,90.5,0,0,0,0,0,0,999.2,1012.5
2023-08-21T03:36:00+09:00,0.3,�k��,1,�k��,26.7,91,0,0,0,0,0,0,999.3,1012.6
2023-08-21T03:37:00+09:00,0.3,�k��,1,�k��,26.7,91.1,0,0,0,0,0,0,999.3,1012.6
2023-08-21T03:38:00+09:00,0.3,�k��,1,�k��,26.7,91.2,0,0,0,0,0,0,999.2,1012.5
2023-08-21T03:39:00+09:00,0.3,���k��,1,�k��,26.6,91,0,0,0,0,0,0,999.2,1012.5
2023-08-21T03:40:00+09:00,0.3,���k��,0.9,��,26.5,91.1,0,0,0,0,0,0,999.2,1012.5
2023-08-21T03:41:00+09:00,0.3,���k��,0.9,��,26.5,91.2,0,0,0,0,0,0,999.2,1012.5
2023-08-21T03:42:00+09:00,0.2,�É�,0.7,��,26.6,91.6,0,0,0,0,0,0,999.2,1012.5
2023-08-21T03:43:00+09:00,0.2,�É�,0.7,��,26.6,91.8,0,0,0,0,0,0,999.2,1012.5
2023-08-21T03:44:00+09:00,0.2,�É�,0.7,���k��,26.7,91.8,0,0,0,0,0,0,999.2,1012.5
2023-08-21T03:45:00+09:00,0.2,�É�,0.7,���k��,26.7,91.9,0,0,0,0,0,0,999.2,1012.5
2023-08-21T03:46:00+09:00,0.2,�É�,0.7,���k��,26.7,91.7,0,0,0,0,0,0,999.2,1012.5
2023-08-21T03:47:00+09:00,0.2,�É�,0.8,���k��,26.7,91.5,0,0,0,0,0,0,999.2,1012.5
2023-08-21T03:48:00+09:00,0.2,�É�,0.8,���k��,26.7,91.5,0,0,0,0,0,0,999.2,1012.5
2023-08-21T03:49:00+09:00,0.3,�k��,1.1,��,26.7,91.4,0,0,0,0,0,0,999.3,1012.6
2023-08-21T03:50:00+09:00,0.3,���k��,1.1,��,26.6,91.1,0,0,0,0,0,0,999.3,1012.6
2023-08-21T03:51:00+09:00,0.4,���k��,1.1,��,26.7,91.2,0,0,0,0,0,0,999.3,1012.6
2023-08-21T03:52:00+09:00,0.4,���k��,1.1,��,26.6,91.1,0,0,0,0,0,0,999.3,1012.6
2023-08-21T03:53:00+09:00,0.5,���k��,1.1,��,26.5,91.2,0,0,0,0,0,0,999.3,1012.6
2023-08-21T03:54:00+09:00,0.5,���k��,1.1,��,26.6,91.5,0,0,0,0,0,0,999.3,1012.6
2023-08-21T03:55:00+09:00,0.5,���k��,1.1,��,26.6,91.5,0,0,0,0,0,0,999.3,1012.6
2023-08-21T03:56:00+09:00,0.5,���k��,1.1,��,26.7,91.9,0,0,0,0,0,0,999.3,1012.6
2023-08-21T03:57:00+09:00,0.5,���k��,1.1,��,26.7,92.1,0,0,0,0,0,0,999.3,1012.6
2023-08-21T03:58:00+09:00,0.5,���k��,1.1,��,26.8,92,0,0,0,0,0,0,999.3,1012.6
2023-08-21T03:59:00+09:00,0.5,�k��,1,���k��,26.8,91.8,0,0,0,0,0,0,999.2,1012.5
2023-08-21T04:00:00+09:00,0.4,�k��,1,���k��,26.8,91.5,0,0,0,0,0,0,999.2,1012.5
2023-08-21T04:01:00+09:00,0.4,�k��,1,���쐼,26.8,91.3,0,0,0,0,0,0,999.2,1012.5
2023-08-21T04:02:00+09:00,0.4,�k��,1,���쐼,26.7,91,0,0,0,0,0,0,999.2,1012.5
2023-08-21T04:03:00+09:00,0.4,�k��,1,���쐼,26.7,90.9,0,0,0,0,0,0,999.2,1012.5
2023-08-21T04:04:00+09:00,0.4,�k��,1,���쐼,26.6,90.9,0,0,0,0,0,0,999.2,1012.5
2023-08-21T04:05:00+09:00,0.4,���k��,1,���쐼,26.7,91.2,0,0,0,0,0,0,999.2,1012.5
2023-08-21T04:06:00+09:00,0.5,���k��,1.1,��,26.6,91.2,0,0,0,0,0,0,999.2,1012.5
2023-08-21T04:07:00+09:00,0.5,���k��,1.1,��,26.8,91.3,0,0,0,0,0,0,999.2,1012.5
2023-08-21T04:08:00+09:00,0.5,���k��,1.1,��,26.8,91.4,0,0,0,0,0,0,999.2,1012.5
2023-08-21T04:09:00+09:00,0.6,���k��,1.2,��,26.8,91.1,0,0,0,0,0,0,999.2,1012.5
2023-08-21T04:10:00+09:00,0.7,��,1.4,��,26.8,91.1,0,0,0,0,0,0,999.2,1012.5
2023-08-21T04:11:00+09:00,0.7,��,1.4,��,26.4,90.4,0,0,0,0,0,0,999.2,1012.5
2023-08-21T04:12:00+09:00,0.8,��,1.5,��,26.6,90.7,0,0,0,0,0,0,999.2,1012.5
2023-08-21T04:13:00+09:00,0.9,��,1.5,��,26.7,91.4,0,0,0,0,0,0,999.2,1012.5
2023-08-21T04:14:00+09:00,1,��,1.7,��,26.5,91,0,0,0,0,0,0,999.2,1012.5
2023-08-21T04:15:00+09:00,1.1,��,1.8,��,26.4,90.8,0,0,0,0,0,0,999.2,1012.5
2023-08-21T04:16:00+09:00,1.2,��,1.8,��,26.4,91.4,0,0,0,0,0,0,999.2,1012.5
2023-08-21T04:17:00+09:00,1.2,��,1.8,��,26.4,91.5,0,0,0,0,0,0,999.2,1012.5
2023-08-21T04:18:00+09:00,1.3,��,1.8,��,26.3,91.4,0,0,0,0,0,0,999.2,1012.5
2023-08-21T04:19:00+09:00,1.4,��,1.9,���쐼,26,91.5,0,0,0,0,0,0,999.3,1012.6
2023-08-21T04:20:00+09:00,1.4,��,2,���쐼,25.8,91.4,0,0,0,0,0,0,999.2,1012.5
2023-08-21T04:21:00+09:00,1.4,��,2,���쐼,25.9,92.2,0,0,0,0,0,0,999.2,1012.5
2023-08-21T04:22:00+09:00,1.4,��,2,���쐼,26.2,93.7,0,0,0,0,0,0,999.2,1012.5
2023-08-21T04:23:00+09:00,1.4,��,2,���쐼,26,93.6,0,0,0,0,0,0,999.3,1012.6
2023-08-21T04:24:00+09:00,1.4,��,2,���쐼,25.9,93.4,0,0,0,0,0,0,999.3,1012.6
2023-08-21T04:25:00+09:00,1.4,��,2,���쐼,26,93.3,0,0,0,0,0,0,999.3,1012.6
2023-08-21T04:26:00+09:00,1.4,��,2,���쐼,26.3,94.2,0,0,0,0,0,0,999.2,1012.5
2023-08-21T04:27:00+09:00,1.3,��,2,���쐼,26.1,94.1,0,0,0,0,0,0,999.3,1012.6
2023-08-21T04:28:00+09:00,1.2,��,2,���쐼,25.7,93.2,0,0,0,0,0,0,999.2,1012.5
2023-08-21T04:29:00+09:00,1.1,��,2,���쐼,25.6,93.1,0,0,0,0,0,0,999.2,1012.5
2023-08-21T04:30:00+09:00,1,��,1.9,��,25.7,93.6,0,0,0,0,0,0,999.2,1012.5
2023-08-21T04:31:00+09:00,1,��,1.8,���k��,26.1,94.7,0,0,0,0,0,0,999.3,1012.6
2023-08-21T04:32:00+09:00,0.9,��,1.7,���k��,26.1,95.1,0,0,0,0,0,0,999.3,1012.6
2023-08-21T04:33:00+09:00,0.9,��,1.7,���k��,26.2,94.9,0,0,0,0,0,0,999.3,1012.6
2023-08-21T04:34:00+09:00,0.8,��,1.7,���k��,26.3,94.8,0,0,0,0,0,0,999.3,1012.6
2023-08-21T04:35:00+09:00,0.8,��,1.7,���k��,26.4,94.5,0,0,0,0,0,0,999.3,1012.6
2023-08-21T04:36:00+09:00,0.7,��,1.5,��,26.3,93.8,0,0,0,0,0,0,999.3,1012.6
2023-08-21T04:37:00+09:00,0.6,���k��,1.2,��,26.3,93.5,0,0,0,0,0,0,999.2,1012.5
2023-08-21T04:38:00+09:00,0.6,���k��,1.2,��,26.5,93.6,0,0,0,0,0,0,999.2,1012.5
2023-08-21T04:39:00+09:00,0.6,���k��,1.2,��,26.5,93.2,0,0,0,0,0,0,999.2,1012.5
2023-08-21T04:40:00+09:00,0.5,���k��,1.1,���k��,26.4,92.7,0,0,0,0,0,0,999.2,1012.5
2023-08-21T04:41:00+09:00,0.5,���k��,1,���k��,26.5,92.5,0,0,0,0,0,0,999.2,1012.5
2023-08-21T04:42:00+09:00,0.5,���k��,0.9,���k��,26.5,92.4,0,0,0,0,0,0,999.2,1012.5
2023-08-21T04:43:00+09:00,0.4,���k��,0.9,���k��,26.4,92.2,0,0,0,0,0,0,999.2,1012.5
2023-08-21T04:44:00+09:00,0.4,���k��,0.9,���k��,26.5,92.2,0,0,0,0,0,0,999.2,1012.5
2023-08-21T04:45:00+09:00,0.4,���k��,0.8,�k��,26.7,92.3,0,0,0,0,0,0,999.2,1012.5
2023-08-21T04:46:00+09:00,0.4,���k��,0.8,�k��,26.6,92,0,0,0,0,0,0,999.2,1012.5
2023-08-21T04:47:00+09:00,0.4,���k��,0.9,��,26.7,91.8,0,0,0,0,0,0,999.2,1012.5
2023-08-21T04:48:00+09:00,0.4,���k��,1,���k��,26.6,91.4,0,0,0,0,0,0,999.1,1012.4
2023-08-21T04:49:00+09:00,0.5,���k��,1.1,��,26.7,91.4,0,0,0,0,0,0,999.2,1012.5
2023-08-21T04:50:00+09:00,0.6,���k��,1.7,��,26.7,91.4,0,0,0,0,0,0,999.2,1012.5
2023-08-21T04:51:00+09:00,0.8,���k��,1.8,��,26.5,90.9,0,0,0,0,0,0,999.2,1012.5
2023-08-21T04:52:00+09:00,0.9,���k��,2.1,��,25.9,89.7,0,0,0,0,0,0,999.2,1012.5
2023-08-21T04:53:00+09:00,1.1,���k��,2.4,��,25.6,90.2,0,0,0,0,0,0,999.2,1012.5
2023-08-21T04:54:00+09:00,1.2,��,2.4,��,25.4,91.1,0,0,0,0,0,0,999.2,1012.5
2023-08-21T04:55:00+09:00,1.3,��,2.4,��,25.3,92.4,0,0,0,0,0,0,999.2,1012.5
2023-08-21T04:56:00+09:00,1.5,��,2.4,��,25.2,93.5,0,0,0,0,0,0,999.2,1012.5
2023-08-21T04:57:00+09:00,1.6,��,2.4,��,25.4,94.9,0,0,0,0,0,0,999.2,1012.5
2023-08-21T04:58:00+09:00,1.7,��,2.5,��,25.4,95.5,0,0,0,0,0,0,999.2,1012.5
2023-08-21T04:59:00+09:00,1.9,��,2.5,��,25.4,95.7,0,0,0,0,0,0,999.2,1012.5
2023-08-21T05:00:00+09:00,1.9,��,2.5,��,25.4,95.9,0,0,0,0,0,0,999.2,1012.5
2023-08-21T05:01:00+09:00,1.9,��,2.5,��,25.4,96.1,0,0,0,0,0,0,999.2,1012.5